Flag for France Weather past 2 weeks in Brest, France

55 °F

Partly cloudy.

Feels Like: 51 °F
Forecast: 54 / 57 °F
Wind: 17 mph from West

Location: Brest Airport

Current Time: Nov 30, 2015 at 11:46:27 PM

Latest Report: Nov 30, 2015 at 11:00 PM

Visibility: N/A

Pressure: 30.33 "Hg

Humidity: 77%

Dew point: 48 °F

Location of BrestLocation

Historic Weather in Brest — Graph


Brest temperature yesterday

Maximum temperature yesterday: 57 °F (at 2:30 PM)
Minimum temperature yesterday: 52 °F (at 12:00 AM)
Average temperature yesterday: 54 °F

Past Weeks' High & Low Weather Summary

High61 °F (Nov 17, 12:00 PM)100% (Nov 16, 9:30 AM)30.33 "Hg (Nov 16, 9:30 AM)
Low36 °F (Nov 22, 7:30 AM)53% (Nov 21, 3:30 PM)29.86 "Hg (Nov 16, 9:30 PM)
Average52 °F84%30.09 "Hg
* Reported Nov 15 10:00 PM — Nov 30 10:00 PM, Brest, Weather by CustomWeather, © 2015

Note: Actual official high and low records may vary slightly from our data, if they occured in-between our weather recording intervals... More about our weather records


Brest weather history for previous 24 hours

Time TempWeatherWind HumidityBarometerVisibility
10:00 PM
Mon, Nov 30
55 °FPartly cloudy.17 mph77%30.33 "HgN/A
9:30 PM55 °FPartly cloudy.18 mph77%30.33 "HgN/A
9:00 PM55 °FPassing clouds.20 mph77%30.33 "HgN/A
8:30 PM54 °FPassing clouds.21 mph82%30.33 "HgN/A
8:00 PM54 °FPassing clouds.20 mph82%30.33 "HgN/A
7:30 PM54 °FPartly cloudy.20 mph82%30.30 "HgN/A
7:00 PM54 °FPassing clouds.20 mph82%30.30 "HgN/A
6:30 PM55 °FPassing clouds.20 mph77%30.30 "HgN/A
6:00 PM55 °FPassing clouds.18 mph72%30.30 "HgN/A
5:30 PM55 °FPassing clouds.21 mph72%30.30 "HgN/A
5:00 PM55 °FPartly sunny.21 mph77%30.30 "HgN/A
4:30 PM55 °FPartly sunny.21 mph77%30.30 "HgN/A
4:00 PM55 °FSunny.20 mph77%30.30 "Hg10 mi
3:30 PM57 °FPartly sunny.22 mph67%30.30 "HgN/A
3:00 PM55 °FPartly sunny.21 mph72%30.30 "HgN/A
2:00 PM57 °FScattered showers. Broken clouds.21 mph72%30.30 "HgN/A
1:30 PM55 °FScattered showers. Partly sunny.18 mph72%30.30 "HgN/A
1:00 PM55 °FPartly sunny.21 mph72%30.30 "HgN/A
12:30 PM54 °FBroken clouds.23 mph77%30.30 "HgN/A
12:00 PM55 °FPartly sunny.20 mph72%30.33 "HgN/A
11:30 AM55 °FPartly sunny.20 mph72%30.33 "HgN/A
11:00 AM55 °FBroken clouds.22 mph72%30.33 "HgN/A
10:30 AM54 °FBroken clouds.20 mph82%30.33 "HgN/A
10:00 AM54 °FBroken clouds.18 mph82%30.33 "HgN/A
9:30 AM52 °FBroken clouds.18 mph88%30.30 "HgN/A
9:00 AM54 °FLight rain. Broken clouds.21 mph82%30.30 "Hg4 mi
8:30 AM55 °FPassing clouds.20 mph72%30.30 "HgN/A
8:00 AM54 °FPassing clouds.18 mph82%30.30 "HgN/A
7:30 AM54 °FPassing clouds.18 mph77%30.30 "HgN/A
7:00 AM54 °FPassing clouds.17 mph82%30.30 "HgN/A
6:30 AM54 °FPartly cloudy.21 mph72%30.30 "HgN/A
6:00 AM54 °FPartly cloudy.20 mph77%30.30 "HgN/A
5:30 AM54 °FPartly cloudy.17 mph77%30.30 "HgN/A
4:30 AM54 °FPartly cloudy.17 mph82%30.30 "HgN/A
4:00 AM54 °FPartly cloudy.16 mph82%30.30 "HgN/A
3:30 AM52 °FPartly cloudy.15 mph88%30.30 "HgN/A
3:00 AM54 °FPartly cloudy.18 mph82%30.30 "HgN/A
2:30 AM54 °FPartly cloudy.15 mph82%30.30 "HgN/A
1:30 AM54 °FPassing clouds.16 mph82%30.30 "HgN/A
1:00 AM54 °FPassing clouds.17 mph82%30.30 "HgN/A
12:30 AM54 °FPassing clouds.17 mph82%30.30 "HgN/A
12:00 AM52 °FPassing clouds.15 mph88%30.30 "HgN/A
11:30 PM
Sun, Nov 29
52 °FPassing clouds.15 mph88%30.30 "HgN/A
11:00 PM54 °FPassing clouds.17 mph77%30.30 "HgN/A
Weather by CustomWeather, © 2015

See weather overviewHow to use our weather pages